Change the Weather History Date:

Saturday, November 2, 2013

  Actual Average Record
Temperature  
Mean Temperature 43 °F -  
Max Temperature 53 °F 52 °F 82 °F (2005)
Min Temperature 33 °F 34 °F 6 °F (1951)
Degree Days  
Heating Degree Days 22    
Moisture  
Dew Point 35 °F    
Average Humidity 75    
Maximum Humidity 93    
Minimum Humidity 47    
Precipitation  
Precipitation 0.00 in - - ()
Sea Level Pressure  
Sea Level Pressure 30.12 in    
Wind  
Wind Speed 11 mph (WNW)    
Max Wind Speed 18 mph    
Max Gust Speed 23 mph    
Visibility 10 miles    
Events      
Averages and records for this station are not official NWS values.
T = Trace of Precipitation, MM = Missing Value Source: NWS Daily Summary

Daily Weather History Graph

Daily Weather History Graph

Search for Another Location

Airport or City:

Trip Planner

Search our weather history database for the weather conditions in past years. The results will help you decide how hot, cold, wet, or windy it might be!

Date:

Astronomy

Nov. 02, 2013 Rise Set
Actual Time 7:54 AM CDT 6:14 PM CDT
Civil Twilight 7:25 AM CDT 6:43 PM CDT
Nautical Twilight 6:53 AM CDT 7:16 PM CDT
Astronomical Twilight 6:20 AM CDT 7:48 PM CDT
Moon 6:52 AM CDT (11/2) 5:46 PM CDT (11/2)
Length of Visible Light 11h 17m
Length of Day
10h 19m
Waning Crescent, 1% of the Moon is Illuminated
Nov 2
Waning Crescent
Nov 3
New
Nov 9
First Quarter
Nov 17
Full
Nov 25
Last Quarter

Hourly Weather History & Observations

Time (CDT) Temp. Windchill Dew Point Humidity Pressure Visibility Wind Dir Wind Speed Gust Speed Precip Events Conditions
12:15 AM 44.6 °F 38.1 °F 41.0 °F 87% 29.98 in 10.0 mi NW 13.8 mph 19.6 mph N/A   Overcast
12:35 AM 44.6 °F 36.9 °F 41.0 °F 87% 29.98 in 10.0 mi NW 18.4 mph - N/A   Overcast
12:55 AM 44.6 °F 37.8 °F 41.0 °F 87% 29.99 in 10.0 mi NW 15.0 mph 21.9 mph N/A   Overcast
1:15 AM 44.6 °F 37.8 °F 39.2 °F 81% 29.99 in 10.0 mi NW 15.0 mph 23.0 mph N/A   Overcast
1:35 AM 44.6 °F 37.8 °F 39.2 °F 81% 30.00 in 10.0 mi NW 15.0 mph - N/A   Overcast
1:55 AM 44.6 °F 37.8 °F 39.2 °F 81% 30.01 in 10.0 mi NW 15.0 mph - N/A   Overcast
2:15 AM 44.6 °F 38.1 °F 39.2 °F 81% 30.02 in 10.0 mi NW 13.8 mph - N/A   Overcast
2:35 AM 44.6 °F 38.1 °F 39.2 °F 81% 30.02 in 10.0 mi NW 13.8 mph - N/A   Overcast
2:55 AM 42.8 °F 36.2 °F 39.2 °F 87% 30.03 in 10.0 mi NW 12.7 mph - N/A   Overcast
3:15 AM 42.8 °F 37.0 °F 39.2 °F 87% 30.03 in 10.0 mi NW 10.4 mph - N/A   Overcast
3:35 AM 42.8 °F 35.8 °F 39.2 °F 87% 30.04 in 10.0 mi NW 13.8 mph 19.6 mph N/A   Overcast
3:55 AM 42.8 °F 36.2 °F 39.2 °F 87% 30.04 in 10.0 mi NW 12.7 mph - N/A   Overcast
4:15 AM 42.8 °F 35.8 °F 39.2 °F 87% 30.05 in 10.0 mi NW 13.8 mph - N/A   Overcast
4:35 AM 42.8 °F 36.2 °F 37.4 °F 81% 30.06 in 10.0 mi NW 12.7 mph - N/A   Overcast
4:55 AM 42.8 °F 36.2 °F 37.4 °F 81% 30.07 in 10.0 mi NW 12.7 mph - N/A   Overcast
5:15 AM 42.8 °F 35.1 °F 37.4 °F 81% 30.07 in 10.0 mi NW 16.1 mph - N/A   Overcast
5:35 AM 42.8 °F 36.2 °F 37.4 °F 81% 30.08 in 10.0 mi NW 12.7 mph - N/A   Overcast
5:55 AM 41.0 °F 33.9 °F 37.4 °F 87% 30.09 in - WNW 12.7 mph - N/A   Mostly Cloudy
6:15 AM 39.2 °F 31.6 °F 35.6 °F 87% 30.11 in 10.0 mi NW 12.7 mph - N/A   Partly Cloudy
6:35 AM 37.4 °F 30.3 °F 35.6 °F 93% 30.12 in 10.0 mi NW 10.4 mph - N/A   Clear
6:55 AM 37.4 °F 29.8 °F 35.6 °F 93% 30.12 in 10.0 mi NW 11.5 mph - N/A   Partly Cloudy
7:15 AM 37.4 °F 29.8 °F 35.6 °F 93% 30.13 in 10.0 mi NW 11.5 mph - N/A   Partly Cloudy
7:35 AM 37.4 °F 29.3 °F 33.8 °F 87% 30.13 in 10.0 mi NW 12.7 mph - N/A   Clear
7:55 AM 35.6 °F 27.5 °F 33.8 °F 93% 30.14 in 9.0 mi WNW 11.5 mph - N/A   Clear
8:15 AM 35.6 °F 28.6 °F 33.8 °F 93% 30.14 in 9.0 mi WNW 9.2 mph - N/A   Clear
8:35 AM 35.6 °F 28.6 °F 33.8 °F 93% 30.15 in 9.0 mi NW 9.2 mph - N/A   Clear
8:55 AM 37.4 °F 30.3 °F 35.6 °F 93% 30.16 in 10.0 mi NW 10.4 mph - N/A   Clear
9:15 AM 37.4 °F 28.9 °F 35.6 °F 93% 30.16 in 10.0 mi NW 13.8 mph - N/A   Clear
9:35 AM 39.2 °F 32.0 °F 35.6 °F 87% 30.17 in 10.0 mi NW 11.5 mph - N/A   Clear
9:55 AM 41.0 °F 34.7 °F 35.6 °F 81% 30.18 in 10.0 mi NW 10.4 mph - N/A   Clear
10:15 AM 41.0 °F 34.3 °F 35.6 °F 81% 30.18 in 10.0 mi NW 11.5 mph - N/A   Clear
10:35 AM 42.8 °F 36.6 °F 37.4 °F 81% 30.19 in 10.0 mi NW 11.5 mph - N/A   Clear
10:55 AM 42.8 °F 36.2 °F 37.4 °F 81% 30.19 in 10.0 mi WNW 12.7 mph - N/A   Clear
12:15 PM 48.2 °F - 35.6 °F 62% 30.20 in 10.0 mi NW 11.5 mph 18.4 mph N/A   Clear
12:35 PM 50.0 °F - 35.6 °F 58% 30.20 in 10.0 mi NW 9.2 mph 17.3 mph N/A   Clear
12:55 PM 50.0 °F - 35.6 °F 58% 30.19 in 10.0 mi WNW 11.5 mph 17.3 mph N/A   Clear
1:15 PM 50.0 °F - 35.6 °F 58% 30.19 in 10.0 mi WNW 11.5 mph 18.4 mph N/A   Clear
1:35 PM 51.8 °F - 33.8 °F 50% 30.18 in 10.0 mi WNW 10.4 mph 17.3 mph N/A   Clear
1:55 PM 51.8 °F - 35.6 °F 54% 30.18 in 10.0 mi NW 10.4 mph 16.1 mph N/A   Clear
2:15 PM 51.8 °F - 33.8 °F 50% 30.17 in 10.0 mi WNW 11.5 mph - N/A   Clear
2:35 PM 53.6 °F - 35.6 °F 51% 30.17 in 10.0 mi WNW 11.5 mph - N/A   Clear
2:55 PM 53.6 °F - 33.8 °F 47% 30.16 in 10.0 mi NW 6.9 mph 15.0 mph N/A   Clear
3:15 PM 53.6 °F - 33.8 °F 47% 30.16 in 10.0 mi WNW 10.4 mph - N/A   Partly Cloudy
3:35 PM 53.6 °F - 33.8 °F 47% 30.16 in 10.0 mi WNW 11.5 mph - N/A   Clear
3:55 PM 53.6 °F - 33.8 °F 47% 30.15 in 10.0 mi WNW 11.5 mph 18.4 mph N/A   Clear
4:15 PM 53.6 °F - 33.8 °F 47% 30.15 in 10.0 mi WNW 9.2 mph - N/A   Clear
4:35 PM 53.6 °F - 33.8 °F 47% 30.15 in 10.0 mi WSW 6.9 mph - N/A   Clear
4:55 PM 53.6 °F - 33.8 °F 47% 30.15 in 10.0 mi West 5.8 mph - N/A   Clear
5:15 PM 53.6 °F - 33.8 °F 47% 30.15 in 10.0 mi WSW 5.8 mph - N/A   Clear
5:35 PM 53.6 °F - 33.8 °F 47% 30.14 in 10.0 mi West 4.6 mph - N/A   Clear
5:55 PM 51.8 °F - 33.8 °F 50% 30.14 in 10.0 mi SW 3.5 mph - N/A   Clear
6:15 PM 50.0 °F - 33.8 °F 54% 30.14 in 10.0 mi South 4.6 mph - N/A   Clear
6:35 PM 46.4 °F 45.2 °F 33.8 °F 62% 30.13 in 10.0 mi SSE 3.5 mph - N/A   Clear
6:55 PM 42.8 °F 41.1 °F 32.0 °F 66% 30.14 in 10.0 mi SSW 3.5 mph - N/A   Clear
7:15 PM 42.8 °F 40.1 °F 32.0 °F 66% 30.14 in 10.0 mi SSW 4.6 mph - N/A   Clear
7:35 PM 44.6 °F 42.2 °F 33.8 °F 66% 30.14 in 10.0 mi South 4.6 mph - N/A   Clear
7:55 PM 41.0 °F 38.0 °F 32.0 °F 70% 30.14 in 10.0 mi South 4.6 mph - N/A   Clear
8:15 PM 41.0 °F 38.0 °F 33.8 °F 76% 30.14 in 10.0 mi South 4.6 mph - N/A   Clear
8:35 PM 39.2 °F 35.9 °F 33.8 °F 81% 30.14 in 10.0 mi SSW 4.6 mph - N/A   Clear
8:55 PM 39.2 °F 37.0 °F 32.0 °F 75% 30.13 in 10.0 mi South 3.5 mph - N/A   Clear
9:15 PM 37.4 °F 34.9 °F 32.0 °F 81% 30.13 in 10.0 mi South 3.5 mph - N/A   Clear
9:35 PM 37.4 °F 34.9 °F 32.0 °F 81% 30.13 in 10.0 mi South 3.5 mph - N/A   Clear
9:55 PM 37.4 °F - 32.0 °F 81% 30.13 in 10.0 mi Calm Calm - N/A   Clear
10:15 PM 37.4 °F - 32.0 °F 81% 30.13 in 10.0 mi Calm Calm - N/A   Clear
10:35 PM 35.6 °F - 32.0 °F 87% 30.13 in 10.0 mi Calm Calm - N/A   Clear
10:55 PM 35.6 °F - 32.0 °F 87% 30.13 in 10.0 mi Calm Calm - N/A   Clear
11:15 PM 35.6 °F - 32.0 °F 87% 30.13 in 10.0 mi Calm Calm - N/A   Clear
11:35 PM 33.8 °F 30.8 °F 32.0 °F 93% 30.13 in 10.0 mi South 3.5 mph - N/A   Clear
11:55 PM 33.8 °F - 32.0 °F 93% 30.13 in 10.0 mi Calm Calm - N/A   Clear